New Roads False River Regiona, LA

6:51 PM CST on December 15, 2019 (GMT -0600)
False River

Weather History for KHZR - November, 2019

Change the Weather History Date:

Wednesday, November 20, 2019

  Actual Average (WUND) Record (WUND)
Temperature  
Mean Temperature 58 °F -  
Max Temperature 75 °F - - (-1)
Min Temperature 41 °F - - (-1)
Degree Days  
Heating Degree Days 7    
Growing Degree Days 8 (Base 50)    
Moisture  
Dew Point 46 °F    
Average Humidity 68    
Maximum Humidity 100    
Minimum Humidity 34    
Precipitation  
Precipitation 0.00 in - - ()
Sea Level Pressure  
Sea Level Pressure 30.13 in    
Wind  
Wind Speed 3 mph ()    
Max Wind Speed 10 mph    
Max Gust Speed 16 mph    
Visibility 8.5 miles    
Events      
Averages and records for this station are not official NWS values.
T = Trace of Precipitation, MM = Missing Value Source: Averaged Metar Reports

Daily Weather History Graph

Daily Weather History Graph

Search for Another Location

Airport or City:

Astronomy

Nov. 20, 2019 Rise Set
Actual Time 6:36 AM CST 5:06 PM CST
Civil Twilight 6:10 AM CST 5:32 PM CST
Nautical Twilight 5:41 AM CST 6:01 PM CST
Astronomical Twilight 5:12 AM CST 6:30 PM CST
Moon No Moon Rise 1:29 PM CST (11/20)
Length of Visible Light 11h 21m
Length of Day
10h 30m
Last Quarter, 40% of the Moon is Illuminated
Nov 20
Last Quarter
Nov 26
New
Dec 4
First Quarter
Dec 11
Full
Dec 18
Last Quarter

Hourly Weather History & Observations

Time (CST) Temp. Windchill Dew Point Humidity Pressure Visibility Wind Dir Wind Speed Gust Speed Precip Events Conditions
12:14 AM 44.6 °F - 44.6 °F 100% 30.07 in 10.0 mi Calm Calm - N/A   Clear
12:34 AM 46.4 °F - 44.6 °F 93% 30.07 in 10.0 mi Calm Calm - N/A   Clear
12:54 AM 44.6 °F - 44.6 °F 100% 30.08 in 5.0 mi Calm Calm - N/A   Clear
1:35 AM 42.8 °F - 42.8 °F 100% 30.08 in 4.0 mi Calm Calm - N/A   Clear
2:14 AM 42.8 °F - 42.8 °F 100% 30.09 in 7.0 mi Calm Calm - N/A   Clear
2:54 AM 42.8 °F - 42.8 °F 100% 30.09 in 7.0 mi Calm Calm - N/A   Clear
3:14 AM 42.8 °F - 42.8 °F 100% 30.09 in 7.0 mi Calm Calm - N/A   Clear
3:34 AM 42.8 °F - 42.8 °F 100% 30.09 in 2.0 mi Calm Calm - N/A   Clear
3:54 AM 42.8 °F - 42.8 °F 100% 30.10 in 4.0 mi Calm Calm - N/A   Clear
4:14 AM 42.8 °F - 42.8 °F 100% 30.10 in 1.5 mi Calm Calm - N/A   Mostly Cloudy
5:14 AM 41.0 °F 39.0 °F 41.0 °F 100% 30.12 in 3.0 mi ENE 3.5 mph - N/A   Clear
5:34 AM 42.8 °F - 42.8 °F 100% 30.13 in 4.0 mi Calm Calm - N/A   Clear
5:56 AM 41.0 °F - 41.0 °F 100% 30.13 in 2.0 mi Calm Calm - N/A   Clear
8:15 AM 53.6 °F - 51.8 °F 94% 30.17 in 5.0 mi Calm Calm - N/A   Clear
8:34 AM 57.2 °F - 53.6 °F 88% 30.18 in 10.0 mi Calm Calm - N/A   Clear
8:56 AM 60.8 °F - 53.6 °F 77% 30.17 in 10.0 mi East 4.6 mph - N/A   Clear
9:34 AM 64.4 °F - 53.6 °F 68% 30.18 in 10.0 mi ESE 5.8 mph - N/A   Clear
10:36 AM 69.8 °F - 51.8 °F 53% 30.17 in 10.0 mi East 9.2 mph - N/A   Clear
10:55 AM 71.6 °F - 50.0 °F 46% 30.17 in 10.0 mi ESE 8.1 mph - N/A   Clear
11:16 AM 71.6 °F - 48.2 °F 43% 30.16 in 10.0 mi East 9.2 mph - N/A   Clear
11:34 AM 71.6 °F - 48.2 °F 43% 30.15 in 10.0 mi ESE 8.1 mph - N/A   Clear
11:54 AM 73.4 °F - 48.2 °F 41% 30.15 in 10.0 mi ESE 6.9 mph - N/A   Clear
12:34 PM 75.2 °F - 46.4 °F 36% 30.13 in 10.0 mi SE 10.4 mph - N/A   Clear
12:54 PM 75.2 °F - 46.4 °F 36% 30.11 in 10.0 mi SE 9.2 mph - N/A   Clear
1:15 PM 75.2 °F - 46.4 °F 36% 30.11 in 10.0 mi ESE 9.2 mph - N/A   Clear
1:34 PM 75.2 °F - 46.4 °F 36% 30.10 in 10.0 mi ESE 9.2 mph - N/A   Clear
1:54 PM 75.2 °F - 46.4 °F 36% 30.10 in 10.0 mi ESE 9.2 mph - N/A   Clear
2:35 PM 75.2 °F - 46.4 °F 36% 30.10 in 10.0 mi SE 8.1 mph - N/A   Clear
2:55 PM 75.2 °F - 44.6 °F 34% 30.10 in 10.0 mi East 10.4 mph - N/A   Clear
3:15 PM 75.2 °F - 44.6 °F 34% 30.10 in 10.0 mi ESE 10.4 mph - N/A   Clear
3:54 PM 73.4 °F - 44.6 °F 36% 30.09 in 10.0 mi ESE 10.4 mph 16.1 mph N/A   Clear
4:14 PM 71.6 °F - 44.6 °F 38% 30.10 in 10.0 mi East 9.2 mph 16.1 mph N/A   Clear
4:35 PM 69.8 °F - 44.6 °F 40% 30.10 in 7.0 mi East 8.1 mph - N/A   Clear
5:14 PM 66.2 °F - 44.6 °F 46% 30.10 in 10.0 mi ESE 6.9 mph - N/A   Clear
5:35 PM 66.2 °F - 44.6 °F 46% 30.10 in 10.0 mi ESE 10.4 mph - N/A   Clear
5:54 PM 64.4 °F - 44.6 °F 49% 30.10 in 10.0 mi ESE 9.2 mph - N/A   Clear
6:34 PM 62.6 °F - 44.6 °F 52% 30.12 in 10.0 mi ESE 6.9 mph - N/A   Clear
7:55 PM 59.0 °F - 44.6 °F 59% 30.15 in 10.0 mi SE 3.5 mph - N/A   Clear
8:14 PM 57.2 °F - 44.6 °F 63% 30.15 in 10.0 mi ESE 3.5 mph - N/A   Clear
8:34 PM 57.2 °F - 46.4 °F 67% 30.15 in 10.0 mi East 3.5 mph - N/A   Clear
8:54 PM 55.4 °F - 46.4 °F 72% 30.16 in 10.0 mi ESE 3.5 mph - N/A   Clear
9:16 PM 53.6 °F - 46.4 °F 77% 30.16 in 10.0 mi Calm Calm - N/A   Clear
9:34 PM 53.6 °F - 46.4 °F 77% 30.17 in 10.0 mi Calm Calm - N/A   Clear
9:56 PM 50.0 °F - 44.6 °F 82% 30.16 in 10.0 mi Calm Calm - N/A   Clear
10:14 PM 51.8 °F - 46.4 °F 82% 30.16 in 10.0 mi ESE 3.5 mph - N/A   Clear
10:34 PM 53.6 °F - 48.2 °F 82% 30.16 in 10.0 mi ESE 3.5 mph - N/A   Clear
10:54 PM 53.6 °F - 48.2 °F 82% 30.16 in 10.0 mi ESE 4.6 mph - N/A   Clear
11:15 PM 55.4 °F - 50.0 °F 82% 30.15 in 10.0 mi SE 6.9 mph - N/A   Clear
11:54 PM 55.4 °F - 51.8 °F 88% 30.15 in 10.0 mi SE 8.1 mph - N/A   Clear